Location: Arpaise
(41.0333°N, 14.7333°E)
Time: 01:39:09
(UTC+00:00)

Nadezhda 3 Rocket - Pass Details

Date: 05 July 2020
Orbit: 957 x 1000 km, 82.9° (Epoch: 11 August)

Event Time Altitude Azimuth Distance (km) Brightness Sun altitude
Rises 21:18:21 0° 356° (N) 3,731 8.2 -21.6°
Reaches altitude 10° 21:20:57 10° 0° (N) 2,775 7.3 -21.8°
Maximum altitude 21:27:14 59° 79° (E) 1,142 4.2 -22.3°
Enters shadow 21:29:10 42° 135° (SE) 1,380 4.3 -22.5°
